TRITON-1

Last updated on Sat Apr 13 2024 01:03:32 GMT+0100 (British Summer Time)

1 39427U 13066M 24103.59972277 .00003760 00000+0 54107-3 0 9994 2 39427 97.8426 23.7296 0102285 293.7991 65.2519 14.73421613556556
UTC large
Height (km)
Speed (km/s)
/
Latitude / Longitude
Inclination (degrees)
Orbital Period (minutes)
Azimuth
Elevation
Range (km)
Doppler Factor

Next 0 passes for location: London (51.5072 / 0.1276)

Sorry there are no passes over London.